Location: *
(44.3526°S, 44.9014°W)
Time: 23:53:03
(UTC+00:00)

Cosmos 1603 - Pass Details

Date: 13 May 2025
Orbit: 831 x 857 km, 71.0° (Epoch: 14 June)

Event Time Altitude Azimuth Distance (km) Brightness Sun altitude
Rises 20:27:13 0° 202° (SSW) 3,465 6.9 -7.9°
Reaches altitude 10° 20:29:47 10° 196° (SSW) 2,525 6.2 -8.4°
Maximum altitude 20:35:25 49° 121° (ESE) 1,108 4.0 -9.3°
Drops below altitude 10° 20:40:59 10° 46° (NE) 2,498 5.9 -10.3°
Sets 20:43:31 0° 41° (NE) 3,425 6.6 -10.7°
